Abdul Partey

Chefscout - Hearts of Oak
3 Apr 2027
Samstag
Verarbeitung

Persönlichkeit

Anpassungsfähigkeit (19) Ehrgeiz (14) Kontroverse (11) Loyalität (13) Druck (12) Professionalität (4) Fairness (13) Temperament (19)

Profil

Trainerstil Demokratisch
Lizenz Kontinentale C
Entschlossenheit 7
Menschenführung 9
Motivation 8
Disziplin 5
Arbeitszufriedenheit
50%
Ermüdung
0%
Rolle Chefscout
Gehalt 61.2K p/W
Vertrag 14.03.2029

Leistung

Verhalten Normal
Trainingseffektivität
21%
Spielerentwicklung
30%
Verletzungsprävention
30%
Taktische Umsetzung
35%

Letzte Ereignisse

Spieler begutachtet jetzt
Nahm an einer Scouting-Besprechung teil jetzt
Spieler begutachtet 7T her
Spieler begutachtet 7T her
Spieler begutachtet 7T her
Spiel beobachtet 7T her
Spieler begutachtet 7T her
Spieler begutachtet 7T her

Aktuell beobachtet

154
Spieler Verein Status Fähigkeit Vertrauen Beobachtet Zuletzt beobachtet Letzte Stimme
Brandon Hanlan Doncaster Rovers Aktiv 93 / 119 40% 4 29.03.2027 -
Samuel Amoah Liberty Professionals Aktiv 95 / 88 40% 1 29.03.2027 -
Damir Céter Hamrun Spartans Aktiv 102 / 115 40% 7 28.03.2027 -
Midana Cassamá Portimonense Aktiv 98 / 103 40% 1 28.03.2027 -
Themba Manyama Ajax Cape Town Aktiv 104 / 101 40% 2 27.03.2027 -
Aaron Drinan Swindon Town Aktiv 92 / 96 40% 2 27.03.2027 -
Solly Khunyedi Bloemfontein Celtic Aktiv 110 / 101 40% 3 26.03.2027 -
Jacopo Desogus AlbinoLeffe Aktiv 89 / 96 40% 1 26.03.2027 -
Paul Glatzel Swindon Town Aktiv 93 / 105 40% 3 25.03.2027 -
Moussakoye Diallo Stade Malien Aktiv 96 / 90 40% 1 25.03.2027 -
Ismail Achik Salernitana Aktiv 108 / 103 40% 1 24.03.2027 -
Rody Junior Effaghe Aris Aktiv 103 / 107 40% 1 24.03.2027 -
Ekain Orobengoa Real Sociedad Aktiv 115 / 119 40% 3 22.03.2027 -
Malick Berthé AS Police Aktiv 101 / 95 40% 1 22.03.2027 -
Samuel Tetteh Wa All Stars Aktiv 101 / 110 40% 2 21.03.2027 -
Albek Gongapshev Shinnik Aktiv 88 / 107 40% 1 21.03.2027 -
Evidence Mokoena Platinum Stars Abgelehnt 89 / 115 40% 5 20.03.2027 Beobachten
Alexandr Saplinov Volga Aktiv 95 / 94 40% 4 19.03.2027 -
Dilan Ortíz Ufa Aktiv 97 / 106 40% 1 19.03.2027 -
Rivaldo Ngcobo Free State Stars Aktiv 106 / 88 40% 3 17.03.2027 -
Lewis McCann Fleetwood Town Aktiv 109 / 82 40% 2 17.03.2027 -
Matty Stevens AFC Wimbledon Aktiv 104 / 88 40% 6 16.03.2027 -
Maclyn Biokpo Jenewari Rivers United Aktiv 97 / 113 40% 1 16.03.2027 -
Malick Traoré Onze Createurs Aktiv 107 / 99 40% 1 15.03.2027 -
Jesús Molina Chelyabinsk Aktiv 75 / 95 40% 3 14.03.2027 -
Martin Sekulić Ural Aktiv 117 / 122 40% 1 14.03.2027 -
Simone Ianesi Pianese Aktiv 113 / 82 40% 1 13.03.2027 -
Mohamed Mallahi Pro Vercelli Aktiv 120 / 108 40% 1 11.03.2027 -
Silas Nwankwo Police Union Aktiv 97 / 96 40% 1 11.03.2027 -
Ilja Safronov Rotor Aktiv 95 / 108 40% 4 10.03.2027 -
José Bica Leixões Aktiv 101 / 103 40% 1 10.03.2027 -
Vinicius Baiano Naxxar Lions Aktiv 96 / 86 40% 7 09.03.2027 -
Franklin Sasere Birkirkara Aktiv 99 / 85 40% 2 09.03.2027 -
Sam Nombe Milton Keynes Dons Aktiv 97 / 92 40% 2 08.03.2027 -
Stephen Humphrys Bradford City Aktiv 109 / 98 40% 4 05.03.2027 -
Antony Medrano Dobrudzha Aktiv 105 / 87 40% 1 05.03.2027 -
Tashreeq Morris Bloemfontein Celtic Aktiv 100 / 108 40% 2 04.03.2027 -
Dmitry Tsypchenko Torpedo Moscow Aktiv 108 / 107 40% 3 03.03.2027 -
Hakeeb Adelakun Doncaster Rovers Aktiv 118 / 103 40% 2 28.02.2027 -
Luke Baartman Chippa United Aktiv 94 / 123 40% 2 26.02.2027 -
Kane Drummond Oldham Athletic Aktiv 98 / 76 40% 1 26.02.2027 -
Mésaque Djú Portimonense Aktiv 104 / 107 40% 2 24.02.2027 -
Yeangel Montero Naxxar Lions Aktiv 119 / 107 40% 5 23.02.2027 -
Kagiso Malinga Bidvest Wits Aktiv 90 / 107 40% 9 22.02.2027 -
Edarlyn Reyes Arsenal Tula Aktiv 122 / 101 40% 3 22.02.2027 -
Piotr Samiec-Talar Slask Aktiv 98 / 89 40% 2 21.02.2027 -
Darío Poveda Nea Salamis Aktiv 96 / 108 40% 3 18.02.2027 -
Thomas Agyepong Berekum Chelsea Aktiv 102 / 93 40% 2 16.02.2027 -
Hlompho Modiba Black Aces Aktiv 78 / 82 40% 2 15.02.2027 -
Mo Dauda Portimonense Aktiv 98 / 119 40% 1 15.02.2027 -
Martin Petkov Botev Vratsa Aktiv 90 / 94 40% 1 12.02.2027 -
Alexandr Yushin Torpedo Moscow Aktiv 115 / 119 40% 3 11.02.2027 -
Daniel Ivanov Spartak 1918 Aktiv 83 / 88 40% 1 08.02.2027 -
Luís Mota Zabbar St. Patrick Aktiv 88 / 79 40% 1 08.02.2027 -
Lukáš Juliš MSK Zilina Aktiv 101 / 121 40% 3 06.02.2027 -
Rhian Brewster Derby County Aktiv 130 / 117 40% 1 05.02.2027 -
Yefrín Castillo Lokomotiv Plovdiv Aktiv 80 / 74 40% 1 05.02.2027 -
Tyrese Shade Burton Albion Abgelehnt 111 / 81 40% 2 04.02.2027 Mehr Infos nötig
Jamie Reid Stevenage Aktiv 103 / 102 40% 2 04.02.2027 Mehr Infos nötig
Stanislav Biblyk Chaika Aktiv 92 / 88 40% 1 02.02.2027 -
Callum Robinson Cardiff City Aktiv 127 / 124 40% 1 01.02.2027 -
Alexandr Dolgov Amkar Aktiv 100 / 95 40% 2 30.01.2027 -
Antonio Vutov Arda Aktiv 92 / 107 40% 1 30.01.2027 -
Stephen Amankona Aduana Stars Aktiv 103 / 92 40% 5 24.01.2027 -
Elliott List Northampton Town Aktiv 79 / 105 40% 1 23.01.2027 -
Louis Appéré Cambridge United Aktiv 101 / 89 40% 1 23.01.2027 -
Robert Murić Floriana Aktiv 97 / 99 40% 2 21.01.2027 -
Migran Ageyan Ufa Aktiv 97 / 81 40% 1 21.01.2027 -
Wandile Duba Bidvest Wits Aktiv 96 / 89 40% 3 19.01.2027 -
Daniel Udoh Salford City Aktiv 101 / 92 40% 2 19.01.2027 -
Kamran Aliev SKA Khabarovsk Aktiv 102 / 82 40% 1 13.01.2027 -
Charlie Whitaker Tranmere Rovers Aktiv 101 / 119 40% 1 31.12.2026 -
Bandile Shandu Orlando Pirates Aktiv 99 / 97 40% 1 31.12.2026 -
Diamanka Senghor Mosta Aktiv 105 / 72 40% 2 28.12.2026 -
Milan Tučić Honved Aktiv 108 / 90 40% 1 27.12.2026 -
Tiago Pucciarelli FK Senica Aktiv 100 / 109 40% 2 26.12.2026 -
Alejandro Melo Temperley Aktiv 112 / 100 40% 1 26.12.2026 -
Beryly Lubala CSKA 1948 Aktiv 107 / 96 40% 4 25.12.2026 -
Jordan Roberts Stevenage Aktiv 120 / 102 40% 1 25.12.2026 -
Danila Shilov Dinamo Stavropol Aktiv 104 / 78 40% 1 24.12.2026 -
Marcos Cuenca Zaragoza Aktiv 123 / 96 40% 1 20.12.2026 -
Victor Mbaoma Tusker Aktiv 105 / 100 40% 5 19.12.2026 -
Ahmet Arslan Breidablik Aktiv 91 / 123 40% 1 19.12.2026 -
Marcus Browne AFC Wimbledon Aktiv 103 / 96 40% 1 18.12.2026 -
Bonginkosi Dlamini Polokwane City Aktiv 79 / 104 40% 2 13.12.2026 -
Oto John CR Belouizdad Aktiv 119 / 104 40% 4 11.12.2026 Beobachten
Jorge Padilla Cherno More Abgelehnt 109 / 122 40% 2 08.12.2026 Mehr Infos nötig
Juan Manuel Toloza Beroe Aktiv 83 / 85 40% 1 08.12.2026 -
Amos Inusah Wa All Stars Aktiv 113 / 112 40% 4 04.12.2026 -
Makabi Lilepo Kaizer Chiefs Aktiv 102 / 116 40% 2 02.12.2026 -
Uroš Đuranović Sliema Wanderers Aktiv 106 / 115 40% 2 01.12.2026 -
Mahir Abdullayev AZAL Aktiv 101 / 89 40% 1 01.12.2026 -
Davit Volkovi Zira Aktiv 127 / 105 40% 4 28.11.2026 -
Qara Ozobic Inter Aktiv 113 / 86 40% 2 28.11.2026 -
Ilja Stefanovich Leningradets Aktiv 93 / 78 40% 1 26.11.2026 -
Jay-Roy Grot OB Aktiv 108 / 105 40% 1 25.11.2026 -
Amar Rahmanović Krylya Sovetov Aktiv 117 / 110 40% 2 24.11.2026 -
Jhonathan Caicedo Arda Aktiv 92 / 118 40% 2 22.11.2026 -
Sédé Dion Golden Arrows Aktiv 87 / 105 40% 2 19.11.2026 -
Gift Motupa Bloemfontein Celtic Aktiv 105 / 94 40% 2 18.11.2026 -
Zakaria Naïdji MC Alger Aktiv 125 / 106 40% 1 14.11.2026 -
Maximiliano Gómez Nacional Aktiv 131 / 106 40% 1 09.11.2026 -
Jack Vale Alcione Milano Aktiv 82 / 110 40% 1 31.10.2026 -
Lucas González Estudiantes Aktiv 98 / 122 40% 1 28.10.2026 -
Erik Brenden Montana Aktiv 114 / 81 40% 1 28.10.2026 -
Rodin Quiñónes Dinamo Batumi Aktiv 99 / 97 40% 2 25.10.2026 -
Derrick Otanga Kakamega Homeboyz Aktiv 103 / 77 40% 1 25.10.2026 -
János Hahn Paksi Aktiv 94 / 98 40% 2 22.10.2026 -
Gonzalo Córdoba Lokomotivi Aktiv 101 / 118 40% 1 15.10.2026 -
Elías Már Ómarsson Vikingur Aktiv 105 / 93 40% 1 14.10.2026 -
Sveinn Aron Guðjohnsen Vikingur Aktiv 105 / 108 40% 1 11.10.2026 -
Robbie Robinson Merani Aktiv 94 / 77 40% 1 10.10.2026 -
Enzo Larrosa Independiente Medellin Aktiv 95 / 97 40% 3 08.10.2026 -
Cavid Madatov Khazar Aktiv 97 / 76 40% 1 07.10.2026 -
Ole Sæter Valerenga Aktiv 122 / 100 40% 2 05.10.2026 -
Elias Hoff Melkersen Stromsgodset Aktiv 128 / 102 40% 1 04.10.2026 -
Risen Albert University of Pretoria Aktiv 82 / 80 40% 1 03.10.2026 -
Anthony Lokosa Tarxien Rainbows Aktiv 99 / 104 40% 1 01.10.2026 -
Matěj Koubek MFK Ruzomberok Aktiv 96 / 123 40% 1 30.09.2026 -
Javohir Esonqulov Merani Aktiv 112 / 94 40% 1 28.09.2026 -
Dmitri Mandrîcenco Dinamo Batumi Aktiv 85 / 97 40% 1 27.09.2026 -
Darío Rodríguez IFK Mariehamn Aktiv 87 / 116 40% 1 25.09.2026 -
Juan Cruz Zurbriggen San Telmo Aktiv 105 / 84 40% 1 24.09.2026 -
Vakhtang Salia Newcastle United Aktiv 91 / 117 40% 1 24.09.2026 -
Thokozani Khumalo Golden Arrows Aktiv 84 / 91 40% 2 23.09.2026 -
Viktor Jónsson IA Aktiv 123 / 98 40% 1 23.09.2026 -
Stefán Árni Geirsson KR Aktiv 104 / 95 40% 1 22.09.2026 -
Luka Zahovič NK Maribor Aktiv 110 / 99 40% 1 21.09.2026 -
David Barbona Defensa y Justicia Aktiv 109 / 118 40% 1 17.09.2026 -
Patrick Schmidt Tarxien Rainbows Aktiv 94 / 84 40% 1 15.09.2026 -
David Savarino Llaneros Aktiv 107 / 95 40% 1 14.09.2026 -
Denys Rezepov Nyva Aktiv 78 / 101 40% 1 14.09.2026 -
Kwame Opoku Asante Kotoko Aktiv 101 / 97 40% 1 12.09.2026 -
Kufre Ebong Niger Tornadoes Aktiv 97 / 83 40% 1 11.09.2026 -
Krisztofer Horváth Ujpest Aktiv 125 / 100 40% 1 10.09.2026 -
Andraž Šporar Slovan Bratislava Aktiv 112 / 100 40% 1 08.09.2026 -
Csanád Vilmos Dénes Debrecen Aktiv 106 / 95 40% 1 07.09.2026 -
Marcelo Torres Gimnasia La Plata Aktiv 133 / 132 40% 1 07.09.2026 -
Ronny Maza Aragua Aktiv 100 / 110 40% 1 01.09.2026 -
Nathan Smith Tranmere Rovers Aktiv 94 / 85 40% 2 26.08.2026 -
Akin Odimayo Crawley Town Aktiv 94 / 84 40% 1 26.08.2026 -
Itumeleng Zungu Free State Stars Aktiv 101 / 114 40% 1 25.08.2026 -
Richard Celis Zamora Aktiv 114 / 97 40% 1 24.08.2026 -
Luca Connell Barnsley Aktiv 117 / 122 40% 1 18.08.2026 -
Gonzalo Gamarra Floriana Aktiv 105 / 82 40% 2 17.08.2026 -
Rodney Maphangule Polokwane City Aktiv 93 / 114 40% 1 17.08.2026 -
Jabu Mokone Orlando Pirates Aktiv 91 / 76 40% 1 10.08.2026 -
Jacob Mendy Peterborough United Aktiv 84 / 91 40% 1 10.08.2026 -
Riyaaz Ismail University of Pretoria Aktiv 102 / 96 40% 1 07.08.2026 -
Gift Mothiba Black Aces Aktiv 87 / 91 40% 1 06.08.2026 -
Alex Mitchell Plymouth Argyle Aktiv 118 / 115 40% 1 05.08.2026 -
Jack Fitzwater Exeter City Aktiv 97 / 81 40% 1 04.08.2026 -
Conor McCarthy Northampton Town Aktiv 90 / 91 40% 1 02.08.2026 -
Giovanni González River Plate Aktiv 137 / 137 40% 1 01.08.2026 -